This demonstration page uses our WeatherBlox Daily Observations layout. Learn more.

Left ArrowRight Arrow

40.92501, -98.34201

Hourly Observations for September 18, 2022

Temp ( °F °C ) Dew Point ( °F °C ) Humidity (%) Winds ( mph kmh ) Pressure ( in mb ) Visibility ( mi km ) Precip ( " mm )
12:53 am 00:53 Clear 63 17.2 60 15.6 90 90 N 5 7 29.86 1011 9 14 0.00 0.00
1:53 am 01:53 Clear 62 16.7 59 15 90 90 NNE 3 6 29.84 1011 9 14 0.00 0.00
2:53 am 02:53 Clear with Mist and Fog 62 16.7 60 15.6 93 93 ESE 5 7 29.83 1010 6 10 0.00 0.00
3:53 am 03:53 Clear with Mist and Fog 61 16.1 59 15 93 93 NE 5 7 29.84 1011 3 5 0.00 0.00
4:53 am 04:53 Clear with Mist and Fog 62 16.7 60 15.6 93 93 NE 7 11 29.85 1011 4 6 0.00 0.00
5:53 am 05:53 Mostly Clear with Light Rain 64 17.8 61 16.1 90 90 N 7 11 29.85 1011 4 6 0.01 0.13
6:43 am 06:43 Partly Cloudy with Mist and Fog 63 17.2 61 16.1 93 93 NNE 12 19 29.82 1010 5 8 0.01 0.25
6:53 am 06:53 Mostly Cloudy with Mist and Fog 63 17.2 61 16.1 93 93 NE 10 17 29.83 1010 5 8 0.01 0.25
7:17 am 07:17 Partly Cloudy with Mist and Fog 63 17.2 61 16.1 93 93 ENE 9 15 29.83 1010 4 6 0.00 0.00
7:24 am 07:24 Mostly Cloudy with Mist and Fog 63 17.2 61 16.1 93 93 ENE 9 15 29.83 1010 3 5 0.00 0.00
7:34 am 07:34 Mostly Cloudy with Mist and Fog 64 17.8 62 16.7 93 93 E 9 15 29.83 1010 3 4 0.00 0.00
7:48 am 07:48 Cloudy with Mist and Fog 64 17.8 62 16.7 93 93 E 12 19 29.85 1011 1 1 0.00 0.00
7:55 am 07:55 Cloudy with Fog 64 17.8 62 16.7 93 93 ENE 12 19 29.83 1010 0 0 0.00 0.00
8:06 am 08:06 Partly Cloudy with Fog 64 17.8 63 17.2 96 96 E 8 13 29.83 1010 0 0 0.00 0.00
8:29 am 08:29 Partly Cloudy with Fog 65 18.3 63 17.2 93 93 ENE 10 17 29.84 1011 1 1 0.00 0.00
8:45 am 08:45 Cloudy with Mist and Fog 66 18.9 64 17.8 93 93 NE 9 15 29.84 1010 2 3 0.00 0.00
8:53 am 08:53 Cloudy with Mist and Fog 66 18.9 64 17.8 93 93 NE 12 19 29.88 1012 3 5 0.00 0.00
9:53 am 09:53 Cloudy with Mist and Fog 70 21.1 66 18.9 87 87 E 8 13 29.87 1012 6 10 0.00 0.00
10:05 am 10:05 Cloudy with Mist and Fog 70 21.1 66 18.9 87 87 ENE 12 19 29.83 1010 6 10 0.00 0.00
10:53 am 10:53 Cloudy 73 22.8 66 18.9 79 79 NNE 12 19 29.89 1012 8 13 0.00 0.00
11:53 am 11:53 Cloudy 71 21.7 64 17.8 79 79 NNE 16 26 29.89 1012 7 11 0.00 0.00
12:53 pm 12:53 Cloudy 77 25 66 18.9 69 69 NE 8 13 29.90 1013 10 16 0.00 0.00
1:36 pm 13:36 Cloudy 79 26.1 66 18.9 65 65 NE 5 7 29.83 1010 10 16 0.00 0.00
1:53 pm 13:53 Cloudy 79 26.1 66 18.9 65 65 N 10 17 29.90 1013 10 16 0.00 0.00
2:26 pm 14:26 Cloudy 79 26.1 66 18.9 65 65 NE 9 15 29.82 1010 10 16 0.00 0.00
2:39 pm 14:39 Cloudy 81 27.2 66 18.9 61 61 NE 9 15 29.81 1009 10 16 0.00 0.00
2:49 pm 14:49 Mostly Cloudy 82 28 66 19 58 58 ENE 10 17 29.79 1009 10 16 0.00 0.00
2:53 pm 14:53 Mostly Cloudy 82 27.8 66 18.9 58 58 ENE 13 20 29.87 1012 10 16 0.00 0.00
3:53 pm 15:53 Mostly Cloudy 83 28.3 66 18.9 57 57 NE 12 19 29.88 1012 10 16 0.00 0.00
4:53 pm 16:53 Partly Cloudy 84 28.9 66 18.9 55 55 ENE 15 24 29.88 1012 10 16 0.00 0.00
5:53 pm 17:53 Mostly Cloudy 80 26.7 65 18.3 60 60 NE 8 13 29.89 1012 10 16 0.00 0.00
6:53 pm 18:53 Sunny 80 26.7 66 18.9 62 62 NE 7 11 29.90 1012 10 16 0.00 0.00
7:53 pm 19:53 Clear 72 22.2 65 18.3 79 79 NE 7 11 29.91 1013 10 16 0.00 0.00
8:53 pm 20:53 Clear 68 20 64 17.8 87 87 NE 6 9 29.92 1013 10 16 0.00 0.00
9:53 pm 21:53 Clear 67 19.4 63 17.2 87 87 NE 5 7 29.93 1014 10 16 0.00 0.00
10:53 pm 22:53 Clear 65 18.3 62 16.7 90 90 NE 5 7 29.93 1014 9 14 0.00 0.00
11:53 pm 23:53 Clear 63 17.2 61 16.1 93 93 Calm 29.94 1014 7 11 0.00 0.00

Powered by AerisWeather